Location: Navalmoral
(40.4603°N, 4.7686°W)
Time: 10:31:22
(UTC+00:00)

Cosmos 1140 Rocket - Pass Details

Date: 05 August 2024
Orbit: 741 x 764 km, 74.1° (Epoch: 14 September)

Event Time Altitude Azimuth Distance (km) Brightness Sun altitude
Rises 20:06:20 0° 339° (NNW) 3,202 7.6 -7.2°
Reaches altitude 10° 20:08:42 10° 338° (NNW) 2,278 6.8 -7.6°
Maximum altitude 20:13:52 77° 253° (WSW) 776 3.7 -8.5°
Drops below altitude 10° 20:19:01 10° 168° (SSE) 2,278 5.6 -9.3°
Enters shadow 20:20:58 - 167° (SSE) 3,040 6.2 -9.6°
